This demonstration page uses our WeatherBlox Daily Observations layout. Learn more.

Left ArrowRight Arrow

53.62937, 11.41316

Hourly Observations for July 20, 2016

Temp ( °F °C ) Dew Point ( °F °C ) Humidity (%) Winds ( mph kmh ) Pressure ( in mb ) Visibility ( mi km ) Precip ( " mm )
6:20 am 06:20 Partly Cloudy with Fog 55 13 55 13 100 100 E 5 7 30.12 1020 0 0 N/A
6:50 am 06:50 Partly Cloudy with Mist and Fog 59 15 59 15 100 100 ENE 3 6 30.12 1020 3 5 N/A
7:20 am 07:20 Mostly Sunny 63 17 63 17 100 100 ENE 3 6 30.12 1020 7 11 N/A
7:50 am 07:50 Mostly Sunny 64 18 64 18 100 100 E 5 7 30.12 1020 7 11 N/A
8:20 am 08:20 Mostly Sunny 66 19 63 17 88 88 E 5 7 30.12 1020 7 11 N/A
8:50 am 08:50 Mostly Sunny 68 20 63 17 83 83 ESE 7 11 30.12 1020 7 11 N/A
9:20 am 09:20 Mostly Sunny 70 21 63 17 78 78 ESE 7 11 30.12 1020 7 11 N/A
9:50 am 09:50 Mostly Sunny 70 21 61 16 73 73 ESE 7 11 30.12 1020 7 11 N/A
10:20 am 10:20 Mostly Sunny 72 22 61 16 69 69 SE 6 9 30.12 1020 7 11 N/A
10:50 am 10:50 Mostly Sunny 73 23 61 16 65 65 ESE 6 9 30.09 1019 7 11 N/A
11:20 am 11:20 Mostly Sunny 73 23 59 15 61 61 VRB 6 9 30.09 1019 30 48 N/A
11:50 am 11:50 Partly Cloudy 75 24 59 15 57 57 S 5 7 30.09 1019 30 48 N/A
12:20 pm 12:20 Mostly Sunny 75 24 61 16 61 61 E 6 9 30.09 1019 30 48 N/A
12:50 pm 12:50 Mostly Sunny 79 26 61 16 54 54 VRB 6 9 30.09 1019 30 48 N/A
1:20 pm 13:20 Mostly Sunny 79 26 59 15 51 51 E 7 11 30.06 1018 7 11 N/A
1:50 pm 13:50 Mostly Sunny 81 27 59 15 48 48 NE 5 7 30.06 1018 30 48 N/A
2:20 pm 14:20 Mostly Sunny 79 26 59 15 51 51 ESE 8 13 30.06 1018 30 48 N/A
2:50 pm 14:50 Mostly Sunny 82 28 61 16 48 48 SE 7 11 30.06 1018 30 48 N/A
3:20 pm 15:20 Mostly Sunny 81 27 59 15 48 48 VRB 5 7 30.03 1017 7 11 N/A
3:50 pm 15:50 Mostly Sunny 79 26 59 15 51 51 E 7 11 30.03 1017 7 11 N/A
4:20 pm 16:20 Mostly Sunny 81 27 59 15 48 48 ESE 9 15 30.03 1017 7 11 N/A
4:50 pm 16:50 Mostly Sunny 82 28 59 15 45 45 ENE 10 17 30.00 1016 7 11 N/A
5:20 pm 17:20 Mostly Sunny 82 28 59 15 45 45 ENE 12 19 30.00 1016 7 11 N/A
5:50 pm 17:50 Mostly Sunny 81 27 57 14 45 45 ENE 13 20 30.00 1016 7 11 N/A
6:20 pm 18:20 Mostly Sunny 82 28 59 15 45 45 ESE 8 13 30.00 1016 7 11 N/A
6:50 pm 18:50 Mostly Sunny 82 28 59 15 45 45 ESE 8 13 30.00 1016 7 11 N/A

Powered by AerisWeather